Home > Weather > Lethbridge > Past weeks

Flag for Canada Weather for the Past 2 Weeks in Lethbridge, Alberta, Canada

Now
79 °F

Partly sunny.


Feels Like: 78 °F
Forecast: 47 / 80 °F
Wind: 2 mph from North

Location: Lethbridge

Current Time: May 4, 2016 at 12:26:39 PM

Latest Report: May 4, 2016 at 12:00 PM


Visibility: 40 mi

Pressure: 29.88 "Hg (27.04 "Hg at 872m altitude)

Humidity: 18%

Dew Point: 32 °F

Location of LethbridgeLocation

Historic Weather in Lethbridge — Graph

°F

Lethbridge Temperature Yesterday

Maximum temperature yesterday: 84 °F (at 4:00 PM)
Minimum temperature yesterday: 45 °F (at 5:00 AM)
Average temperature yesterday: 65 °F

High & Low Weather Summary for the Past Weeks

 TemperatureHumidityPressure
High84 °F (May 3, 4:00 PM)100% (Apr 24, 9:00 PM)30.37 "Hg (Apr 24, 9:00 PM)
Low25 °F (Apr 27, 6:00 AM)13% (May 3, 1:00 PM)29.75 "Hg (Apr 21, 7:00 PM)
Average49 °F63%30.04 "Hg
* Reported Apr 19 11:00 AM — May 4 11:00 AM, Lethbridge, Weather by CustomWeather, © 2016

Note: Actual official high and low records may vary slightly from our data, if they occured in-between our weather recording intervals... More about our weather records

Advertising

Lethbridge Weather History for the Previous 24 Hours

Scroll right to see more
 ConditionsComfort  
Time TempWeatherWind HumidityBarometerVisibility
11:00 AM
Wed, May 4
77 °FPartly sunny.7 mph22%29.88 "Hg40 mi
10:00 AM73 °FScattered clouds.6 mph31%29.91 "Hg40 mi
9:00 AM66 °FScattered clouds.6 mph40%29.93 "Hg40 mi
8:00 AM57 °FPassing clouds.7 mph51%29.93 "Hg40 mi
7:00 AM48 °FPassing clouds.3 mph66%29.94 "Hg40 mi
6:00 AM48 °FPassing clouds.6 mph66%29.93 "Hg40 mi
5:00 AM46 °FClear.7 mph66%29.93 "Hg9 mi
4:00 AM46 °FClear.5 mph66%29.94 "Hg9 mi
3:00 AM52 °FClear.6 mph54%29.93 "Hg9 mi
2:00 AM52 °FClear.5 mph54%29.95 "Hg9 mi
1:00 AM52 °FClear.7 mph54%29.94 "Hg9 mi
12:00 AM48 °FClear.17 mph62%29.94 "Hg9 mi
11:00 PM
Tue, May 3
54 °FClear.18 mph47%29.94 "Hg9 mi
10:00 PM59 °FClear.20 mph34%29.93 "Hg40 mi
9:00 PM63 °FPassing clouds.10 mph30%29.92 "Hg40 mi
8:00 PM75 °FSunny.9 mph19%29.91 "Hg40 mi
7:00 PM81 °FSunny.20 mph14%29.93 "Hg40 mi
6:00 PM82 °FSunny.16 mph14%29.94 "Hg40 mi
5:00 PM84 °FSunny.14 mph13%29.95 "Hg40 mi
4:00 PM84 °FSunny.16 mph13%29.96 "Hg40 mi
3:00 PM82 °FSunny.10 mph14%29.97 "Hg40 mi
2:00 PM82 °FSunny.18 mph13%29.98 "Hg40 mi
1:00 PM81 °FSunny.16 mph13%30.00 "Hg40 mi
12:00 PM79 °FSunny.14 mph15%30.02 "Hg40 mi
Weather by CustomWeather, © 2016

See weather overviewHow to use our weather pages